Regional Weather Roundup
Issued by NWS

Home | Current Version | Previous Version | Text Only | Print | Product List | Glossary On
Versions: 1 2 3 4 5 6 7 8 9 10 11 12 13 14 15 16 17 18 19 20 21 22 23 24 25 26 27 28 29 30 31 32 33 34 35 36 37 38 39 40 41 42 43 44 45 46 47 48 49 50
000
ASUS44 KFWD 280001
RWRTX
NORTH TEXAS HOURLY WEATHER ROUNDUP
NATIONAL WEATHER SERVICE FORT WORTH TX
700 PM CDT MON JUL 27 2015

NOTE: "FAIR" INDICATES FEW OR NO CLOUDS BELOW 12,000 FEET WITH NO
SIGNIFICANT WEATHER AND/OR OBSTRUCTIONS TO VISIBILITY.

TXZ118-119-280100-
DALLAS/FORT WORTH METROPLEX

CITY           SKY/WX    TMP DP  RH WIND       PRES   REMARKS
DFW AIRPORT    PTSUNNY   96  65  35 S13       29.84F HX  98
6HR MIN TEMP:  96; 6HR MAX TEMP: 100;

DALLAS LOVE    PTSUNNY   96  66  37 SE17G23   29.85F HX  99
6HR MIN TEMP:  96; 6HR MAX TEMP: 101;

FTW MEACHAM    SUNNY     98  65  33 SE17      29.84F HX 101
6HR MIN TEMP:  98; 6HR MAX TEMP: 102;

DAL-EXECUTIVE  SUNNY     95  65  37 SE9G18    29.85F HX  97
6HR MIN TEMP:  94; 6HR MAX TEMP:  98;

FTW-ALLIANCE   PTSUNNY   95  65  37 S13G21    29.85S HX  97
6HR MIN TEMP:  95; 6HR MAX TEMP: 101;

FTW-NAS-JRB    SUNNY     98  65  33 SE10      29.85F HX 101
6HR MIN TEMP:  97; 6HR MAX TEMP: 101;

FTW-SPINKS     SUNNY     97  64  34 SE12      29.87F HX  99
ARLINGTON      SUNNY     98  63  31 SE13      29.85F HX 100
6HR MIN TEMP:  97; 6HR MAX TEMP: 101;

GRAND PRAIRIE  SUNNY     97  66  36 SE8       29.86F HX 100
ADDISON        MOSUNNY   97  63  32 S10G21    29.87S HX  98
MESQUITE       SUNNY     97  64  34 SE9       29.86F HX  99
LANCASTER      SUNNY     96  63  33 SE13      29.87S HX  97
6HR MIN TEMP:  95; 6HR MAX TEMP:  99;

$$

TXZ091>094-102>105-117-120-121-131>134-280100-
NORTH CENTRAL TEXAS

CITY           SKY/WX    TMP DP  RH WIND       PRES   REMARKS
BOWIE          SUNNY     93  64  38 S7        29.87S HX  95
6HR MIN TEMP:  92; 6HR MAX TEMP:  96;

DENTON         SUNNY     97  65  34 SE13      29.85F HX  99
6HR MIN TEMP:  95; 6HR MAX TEMP:  99;

MCKINNEY       SUNNY     96  68  39 S14       29.86F HX 101
6HR MIN TEMP:  94; 6HR MAX TEMP:  98;

TERRELL        SUNNY     96  67  38 S8        29.87F HX 100
6HR MIN TEMP:  95; 6HR MAX TEMP: 100;

WAXAHACHIE     SUNNY     94  67  40 SE8       29.88S HX  97
6HR MIN TEMP:  94; 6HR MAX TEMP:  98;

$$

TXZ083>090-098>101-113>116-127>130-139>142-154-155-280100-
WESTERN NORTH TEXAS

CITY           SKY/WX    TMP DP  RH WIND       PRES   REMARKS
WICHITA FALLS  SUNNY     96  64  34 SE16      29.84F HX  98
6HR MIN TEMP:  95; 6HR MAX TEMP:  99;

WF-KICKAPOO    SUNNY     98  60  28 SE14G21   29.85F HX  97
6HR MIN TEMP:  97; 6HR MAX TEMP: 101;

VERNON         SUNNY     99  57  24 SE17G23   29.83F HX  98
6HR MIN TEMP:  90; 6HR MAX TEMP: 101;

ABILENE        SUNNY     97  63  32 SE15      29.87F HX  98
6HR MIN TEMP:  94; 6HR MAX TEMP:  98;

MINERAL WELLS  SUNNY     95  65  37 SE13      29.84F HX  97
6HR MIN TEMP:  94; 6HR MAX TEMP:  99;

STEPHENVILLE   SUNNY     95  61  32 SE12      29.90S HX  95
6HR MIN TEMP:  93; 6HR MAX TEMP:  98;

COMANCHE       MOSUNNY   95  63  35 SE9       29.87F HX  96
6HR MIN TEMP:  94; 6HR MAX TEMP:  99;

$$

TXZ143>147-156>162-174-175-280100-
CENTRAL TEXAS

CITY           SKY/WX    TMP DP  RH WIND       PRES   REMARKS
WACO           SUNNY     96  65  35 SE14      29.85F HX  98
6HR MIN TEMP:  94; 6HR MAX TEMP:  99;

WACO-TSTC      SUNNY     95  64  36 SE9       29.86S HX  97
WACO-MCGREGOR  SUNNY     97  64  34 SE13      29.86S HX  99
6HR MIN TEMP:  95; 6HR MAX TEMP: 100;

CORSICANA      SUNNY     96  67  38 S10       29.87F HX 100
6HR MIN TEMP:  94; 6HR MAX TEMP:  99;

MEXIA          SUNNY    N/A N/A N/A E15G21    29.86F
HEARNE         SUNNY     94  69  43 SE6       29.87S HX  99
6HR MIN TEMP:  91; 6HR MAX TEMP:  98;

TEMPLE         SUNNY     95  64  36 SE13G18   29.86S HX  97
6HR MIN TEMP:  93; 6HR MAX TEMP:  99;

KILLEEN        NOT AVBL
KILLEEN-SKYLRK SUNNY     97  64  34 S14       29.85S HX  99
6HR MIN TEMP:  93; 6HR MAX TEMP:  99;

HAMILTON       SUNNY     95  61  31 S13       29.89S HX  95
6HR MIN TEMP:  93; 6HR MAX TEMP:  99;

LAMPASAS       SUNNY     96  66  36 SE12G17   29.87S HX  99
6HR MIN TEMP:  93; 6HR MAX TEMP:  98;

$$

TXZ095>097-106>112-122>126-135>138-148>153-164>167-280100-
EAST TEXAS

CITY           SKY/WX    TMP DP  RH WIND       PRES   REMARKS
PARIS          SUNNY     97  68  38 S10       29.87F HX 101
6HR MIN TEMP:  95; 6HR MAX TEMP:  99;

SULPHUR SPRNGS SUNNY     97  66  35 S8        29.89F HX 100
6HR MIN TEMP:  96; 6HR MAX TEMP: 100;

GILMER         MOSUNNY   95  69  41 S5        29.87F HX 100
6HR MIN TEMP:  91; 6HR MAX TEMP:  97;

MINEOLA        MOSUNNY   93  70  46 CALM      29.88F HX  99
TYLER          SUNNY     96  69  41 S7        29.87F HX 102
6HR MIN TEMP:  93; 6HR MAX TEMP: 100;

LONGVIEW       PTSUNNY   94  72  48 SE9       29.87S HX 102
6HR MIN TEMP:  94; 6HR MAX TEMP: 100;

ATHENS         SUNNY     95  66  38 S5        29.86S HX  98
PALESTINE      SUNNY     96  68  39 S5        29.88F HX 100
JACKSONVILLE   PTSUNNY   96  62  32 S6        29.91S HX  97
CENTER         FAIR      88  72  58 CALM      29.89S HX  95
6HR MIN TEMP:  86; 6HR MAX TEMP:  99;

NACOGDOCHES    SUNNY     93  70  46 S6        29.87F HX  99
6HR MIN TEMP:  90; 6HR MAX TEMP:  97;

LUFKIN         SUNNY     91  73  55 S8        29.88S HX  99
6HR MIN TEMP:  90; 6HR MAX TEMP:  98;

$$

SUPPLEMENTAL OBSERVATIONS (CENTRAL)

CITY           SKY/WX    TMP DP  RH WIND       PRES   REMARKS
$$

SUPPLEMENTAL OBSERVATIONS (WEST)

CITY           SKY/WX    TMP DP  RH WIND       PRES   REMARKS
$$

SUPPLEMENTAL OBSERVATIONS (EAST)

CITY           SKY/WX    TMP DP  RH WIND       PRES   REMARKS
$$

SUPPLEMENTAL OBSERVATIONS ARE A COLLECTION OF AUTOMATED INSTRUMENTS
THAT ARE MAINTAINED BY A VARIETY OF FEDERAL AND STATE AGENCIES.
CERTAIN ELEMENTS...SUCH AS HUMIDITY VALUES AND SUSTAINED WIND
SPEEDS...MAY BE APPROXIMATED.



USA.gov is the U.S. government's official web portal to all federal, state and local government web resources and services.